User: anonymous   Login
Location: Mactaquac Provincial Park
(45.9573°N, 66.8897°W)
Time: 12:12:31
(UTC-04:00)
Language:

CENTAUR R/B - Orbit

View from above orbital plane
View from above orbital plane
View from above satellite
View from above satellite

Ground track
Ground track

The orbit data is extracted from the following two-line orbital elements,

1 26906U 01040B   18053.83180838 0.00000000  00000-0  00000-0 0    07
2 26906  63.4510  50.7495 0371000 341.3472  18.6528 13.44023080    04
Epoch (UTC): 22 February 2018 19:57:48
Eccentricity: 0.0371000
inclination: 63.4510°
perigee height: 817 km
apogee height: 1371 km
right ascension of ascending node: 50.7495°
argument of perigee: 341.3472°
revolutions per day: 13.44023080
mean anomaly at epoch: 18.6528°
orbit number at epoch: 0

The dashed part of the orbit path shows where the satellite is in the earth's shadow,  

DLR